Regional Weather Roundup
Issued by NWS Wakefield, VA

Home | Current Version | Previous Version | Graphics & Text | Print | Product List | Glossary On
Versions: 1 2 3 4 5 6 7 8 9 10 11 12 13 14 15 16 17 18 19 20 21 22 23 24 25 26 27
000
ASUS41 KAKQ 240115
RWRAKQ

REGIONAL WEATHER ROUNDUP
NATIONAL WEATHER SERVICE WAKEFIELD VA
800 PM EST THU NOV 23 2017

Note: "fair" indicates few or no clouds below 12,000 feet with no
significant weather and/or obstructions to visibility. * = Denotes
station may not report precipitation (e.g., rain,snow,etc.),
thunder or fog.

VAZ042-051-052>054-056-240200-
NORTHERN VIRGINIA

CITY           SKY/WX    TMP DP  RH WIND       PRES   REMARKS
WASH NATIONAL  CLEAR     39  27  62 S3        30.07S
DULLES         CLEAR     31  24  75 S5        30.05S
FORT BELVOIR   CLEAR     29  23  78 CALM      30.06S
QUANTICO       NOT AVBL
FREDERICKSBRG* CLEAR     32  27  83 CALM      30.07R
STAFFORD*      CLEAR     27  26  96 CALM      30.10S
WARRENTON      NOT AVBL
CULPEPER*      CLEAR     29  24  81 CALM      30.07R
MANASSAS*      CLEAR     29  25  85 CALM      30.07R
LEESBURG*      CLEAR     32  30  93 W3        30.06R
WINCHESTER     CLEAR     32  23  69 CALM      30.03R
FRONT ROYAL*   CLEAR     32  25  74 CALM      30.02R
LURAY*         CLEAR     32  28  86 CALM      30.02S
$$

VAZ048-049-060>072-079>083-240200-
CENTRAL AND SOUTH CENTRAL VIRGINIA

CITY           SKY/WX    TMP DP  RH WIND       PRES   REMARKS
RICHMOND       PTCLDY    32  25  75 CALM      30.09R
CHESTERFIELD*  NOT AVBL
PETERSBURG*    PTCLDY   N/A N/A N/A CALM      30.10S
HANOVER        CLEAR     30  26  85 CALM      30.09S
TAPPAHANNOCK*    N/A    N/A N/A N/A MISG        N/A
QUINTON*       FAIR      31  28  87 W3        30.09S
CHARLOTTSVILLE CLEAR     37  25  61 SW3       30.05R
GORDONSVILLE*  CLEAR     29  26  88 CALM      30.06R
ORANGE*        CLEAR     30  25  80 CALM      30.06R
LOUISA*        CLEAR     32  24  71 S6        30.11R
BUMPASS*       FAIR      28  25  86 S7        30.07S
FARMVILLE*     CLEAR     33  30  86 CALM      30.06S
CREWE*         FAIR      29  29 100 CALM      30.08S
FORT PICKETT*  FAIR      32  27  81 MISG      30.08S
CHASE CITY*    FAIR      31  27  85 CALM      30.08R
CLARKSVILLE*   FAIR      32  30  93 CALM      30.07S
SOUTH HILL*    CLOUDY    30  30  99 CALM      30.14R
LAWRENCEVILLE* FAIR      33  29  86 CALM      30.08S
EMPORIA*       CLOUDY    32  30  93 CALM      30.11S
$$

VAZ088>098-240200-
SOUTHEAST VIRGINIA

CITY           SKY/WX    TMP DP  RH WIND       PRES   REMARKS
NORFOLK        CLOUDY    40  33  76 CALM      30.09R
VIRGINIA BEACH CLOUDY    37  31  78 CALM      30.09R
NORFOLK NAVAL  PTCLDY    37  31  78 CALM      30.11S
WEST POINT*    CLEAR     30  26  84 CALM      30.11S
SALUDA*        FAIR      31  30  94 CALM      30.08F
NEWPORT NEWS   CLOUDY    33  29  85 CALM      30.10R
LANGLEY AFB    PTCLDY    34  30  88 CALM      30.09S
FORT EUSTIS    CLOUDY    35  29  80 CALM      30.07S
WILLIAMSBURG*  PTCLDY    36  30  80 CALM      30.10S
HR EXEC AP*    NOT AVBL
FRANKLIN*      PTCLDY    32  29  89 CALM      30.11R
US460-WAKEFLD  CLOUDY    32  30  92 CALM      30.10S
$$

VAZ020-022-025-037-045-240200-
WEST CENTRAL AND SOUTHWEST VIRGINIA

CITY           SKY/WX    TMP DP  RH WIND       PRES   REMARKS
STAUNTON*      CLEAR     28  22  78 CALM      30.04R
WAYNESBORO*    CLEAR     34  24  67 S5        30.01S
HOT SPRINGS VA CLEAR     37  11  33 W13       29.96S
LYNCHBURG      CLEAR     31  24  75 CALM      30.05R
DANVILLE       CLEAR     30  26  85 CALM      30.07S
SOUTH BOSTON*  FAIR      32  26  78 CALM      30.08S
MARTINSVILLE   CLEAR     30  25  81 CALM      30.08R
ROANOKE        CLEAR     39  25  57 CALM      30.06R
BLACKSBURG     CLEAR     35  25  68 CALM      30.04S
DUBLIN*        CLEAR     35  23  60 SW3       30.03R
MARION*        CLEAR     36  25  65 CALM      30.03S
HILLSVILLE*    CLEAR     39  24  55 SW5       30.00S
RICHLANDS*     FAIR      42  19  41 CALM      30.02R
WISE*          CLEAR     39  19  45 CALM      30.03S
ABINGDON*      CLEAR     40  31  70 CALM      30.02S
$$

MDZ021>025-VAZ099-100-240200-
SOUTHERN MARYLAND AND THE DELMARVA PENINSULA

CITY           SKY/WX    TMP DP  RH WIND       PRES   REMARKS
PATUXENT RIVER CLEAR     30  27  88 SW3       30.07S
BAY BRIDGE APT CLEAR     32  27  80 CALM      30.06F
LEONARDTOWN    PTCLDY    32  27  80 CALM      30.08F
DOVER          PTCLDY    33  28  81 S3        30.06F
GEORGETOWN     CLOUDY    31  25  78 CALM      30.08S
EASTON         CLEAR     32  25  74 CALM      30.10F
CAMBRIDGE      PTCLDY    30  27  86 CALM      30.08S
SALISBURY      CLOUDY    29  26  89 CALM      30.08S
OCEAN CITY     CLOUDY    32  27  81 W3        30.09R
WALLOPS ISLAND CLOUDY    32  27  81 CALM      30.09S
ACCOMACK*      CLOUDY    31  29  92 CALM      30.09S
$$

NCZ012>017-030>032-240200-
NORTH CENTRAL AND EASTERN NORTH CAROLINA

CITY           SKY/WX    TMP DP  RH WIND       PRES   REMARKS
ROANOKE RAPIDS FAIR      34  34 100 CALM      30.10R
RALEIGH        CLOUDY    39  30  70 CALM      30.08S
ELIZABETH CITY CLOUDY    42  37  82 E5        30.10R
AHOSKIE*       CLOUDY    36  34  91 CALM      30.10S
EDENTON*       CLOUDY    41  38  89 CALM      30.10S
CURRITUCK*     CLOUDY    39  37  91 CALM      30.10S
KILL DEVIL HLS CLOUDY    43  36  75 CALM      30.08R
MANTEO         CLOUDY    44  37  76 N5        30.09R
CAPE HATTERAS  CLOUDY    50  44  80 NE6       30.05F
TARBORO*       NOT AVBL
GOLDSBORO      CLOUDY    42  36  80 NE3       30.06F
WASHINGTON     CLOUDY    41  38  87 CALM      30.10R
GREENVILLE     CLOUDY    41  37  87 CALM      30.10S
NEW BERN       CLOUDY    44  40  85 NE5       30.09S
WILMINGTON     CLOUDY    47  41  80 N8        30.05F
$$

VAZ048-240200-
ELSEWHERE

CITY           SKY/WX    TMP DP  RH WIND       PRES   REMARKS
HARRISBURG PA  PTCLDY    32  25  75 N3        30.03S
BALTIMORE      CLEAR     31  24  75 CALM      30.05S
ANNAPOLIS      NOT AVBL
ANDREWS AFB    CLEAR     30  22  74 CALM      30.05R
PHILADELPHIA   PTCLDY    37  21  52 W7        30.05F
HENDERSON NC   CLOUDY    35  26  69 CALM      30.08R
GREENSBORO     CLEAR     40  29  64 CALM      30.05R
ROCKY MOUNT    CLOUDY    39  36  89 CALM      30.09S
$$

VAZ100-240200-
MARINE

STATION/POSITION TIME  TEMP    WIND        PRES    WAVE   SWELL
                       AIR SEA DIR/SP/G            HT/PER HT/PER
                 (UTC) (F)     (DEG/KT/KT) (MB)    (FT/S) (FT/S)
BRANDYWINE LGT   0048          290/  9/ 13 1018.3F
CAPE MAY NJ      0048   41 49  290/  9/ 11 1017.5S
LEWES DE         0048   36 49  270/  5/  6 1018.1F
15NM E FENWICK I 2350   42 57  280/ 10/ 14 1018.3    3/11   2/11
OCEAN-CITY-INLET 0048   37 51  290/  4/  5 1019.2R
WACHAPREAGUE VA  0048   35 49   CALM  /  1 1018.9S
THOMAS POINT MD  0100   42 51  220/  5/  5   N/A
GOOSES REEF MD   0050   43     280/  6/  8 1018.6R
COVE POINT MD    0048   40     250/  5/  6 1018.8F
SOLOMONS ISLAND  0048   42 53  240/  4/  5 1018.0S
BISHOPS HEAD MD  0048   41 47  180/  2/  2 1018.7S
PINEY POINT MD   0048          250/  4/  7   N/A
POTOMAC MD       0050   43     240/  6/  8 1018.0R
CAMBRIDGE MD     0048                      1019.0F
LEWISETTA VA     0048   38 48  220/  3/  4 1018.6F
RAPPAHANNOCK LGT 0048          290/  5/  8   N/A
STINGRAY PT      0050   43     320/  4/  6 1019.0S
YORK RVR RNG VA  0048   43     310/  5/  6 1019.4S
YORKTOWN VA      0048   40 53  220/  2/  3 1018.6F
JAMESTOWN VA     0050           60/  4/  4   N/A
DOMINION TERM VA 0048   42      40/  1/  2 1019.3R
KIPTOPEKE VA     0048      52   80/  2/  4   N/A
CAPE HENRY VA    0048   42     280/  4/  5   N/A
WILLOUBY STN VA  0048   43     330/  5/  6 1019.1R
S CRANEY ISL VA  0048   42     310/  2/  3 1018.8R
CAPE HENRY BUOY  0030      59                N/A     4/ 9   2/11
1ST LANDING BUOY 0050   44     320/  6/ 10 1019.2R
CAPE CHARLES BUO 0051      57                N/A     3/ 9   2/11
64NM E OF VA BCH 0050   46 59  330/  8/ 12 1019.0R   5/10   5/10
DUCK PIER NC     0048   46 57   50/  6/  7 1018.3R
44100 DUCK FRF   0045      60                N/A     4/10   2/11
44056 DUCK FRF   0100      60                N/A     4/ 9   2/11
OREGON INLET NC  0048           10/  5/  7 1018.5R
HATTERAS NC      0048   50 58   30/  8/ 12 1017.5S
DIAMOND SHLS NC  0050   57 71   20/ 10/ 16 1017.5F   5/ 9   5/ 9
CAPE LOOKOUT NC  0000           40/ 15/ 16 1017.6F
$$




USA.gov is the U.S. government's official web portal to all federal, state and local government web resources and services.